Total_Precipitation_Accumulation
0.09 0.05 0.03 0.03 0.03 0.03 0.02 0.01 0.00 0.00 0.00 0.01 0.04 0.06 0.05 0.06 0.13 0.17 0.27 0.46 0.70 0.70 0.46 0.31 0.22 0.17 0.18 0.20 0.20 0.22 0.23 0.25 0.29 0.31 0.29 0.22 0.17 0.13 0.06 0.06 0.08 0.08 0.06
0.11 0.08 0.05 0.03 0.03 0.04 0.04 0.02 0.01 0.00 0.00 0.00 0.02 0.03 0.03 0.04 0.08 0.13 0.28 0.44 0.53 0.62 0.70 0.60 0.44 0.33 0.23 0.20 0.18 0.18 0.19 0.21 0.23 0.25 0.25 0.21 0.16 0.11 0.07 0.08 0.11 0.11 0.08
0.12 0.11 0.09 0.09 0.09 0.05 0.03 0.02 0.02 0.01 0.00 0.01 0.01 0.01 0.01 0.02 0.03 0.07 0.13 0.25 0.24 0.24 0.41 0.57 0.57 0.49 0.39 0.30 0.22 0.14 0.13 0.15 0.19 0.22 0.24 0.22 0.17 0.13 0.10 0.12 0.12 0.13 0.09
0.20 0.20 0.18 0.19 0.21 0.11 0.05 0.05 0.05 0.03 0.02 0.01 0.01 0.01 0.00 0.01 0.01 0.02 0.04 0.07 0.09 0.11 0.17 0.19 0.22 0.26 0.36 0.40 0.31 0.16 0.10 0.10 0.11 0.16 0.19 0.17 0.13 0.12 0.14 0.16 0.12 0.12 0.12
0.38 0.37 0.39 0.36 0.31 0.25 0.19 0.11 0.08 0.07 0.08 0.06 0.03 0.02 0.01 0.01 0.01 0.01 0.02 0.03 0.03 0.05 0.10 0.04 0.05 0.05 0.06 0.11 0.17 0.19 0.15 0.09 0.08 0.09 0.10 0.11 0.09 0.09 0.11 0.12 0.11 0.11 0.11
0.73 0.73 0.71 0.62 0.53 0.52 0.51 0.27 0.22 0.18 0.15 0.12 0.06 0.04 0.02 0.02 0.01 0.01 0.02 0.02 0.01 0.01 0.02 0.01 0.01 0.01 0.02 0.03 0.06 0.10 0.13 0.11 0.07 0.06 0.07 0.08 0.08 0.07 0.09 0.09 0.09 0.10 0.12
1.17 1.20 1.12 1.04 0.93 0.87 0.76 0.58 0.54 0.45 0.31 0.17 0.21 0.22 0.12 0.05 0.03 0.02 0.02 0.02 0.03 0.02 0.01 0.00 0.01 0.01 0.02 0.01 0.03 0.04 0.06 0.09 0.11 0.09 0.06 0.06 0.05 0.05 0.07 0.09 0.10 0.11 0.14
1.47 1.45 1.55 1.55 1.42 1.40 1.31 1.04 1.01 0.93 0.65 0.41 0.50 0.62 0.41 0.24 0.11 0.05 0.03 0.03 0.03 0.03 0.02 0.01 0.01 0.00 0.02 0.03 0.02 0.01 0.03 0.06 0.13 0.13 0.09 0.06 0.05 0.03 0.04 0.07 0.09 0.10 0.11
1.67 1.63 1.68 1.75 1.66 1.60 1.60 1.54 1.39 1.34 1.11 0.75 0.60 0.69 0.63 0.52 0.33 0.11 0.04 0.04 0.04 0.04 0.04 0.03 0.01 0.01 0.01 0.02 0.03 0.01 0.01 0.02 0.07 0.10 0.09 0.07 0.04 0.03 0.03 0.04 0.08 0.11 0.11
1.82 1.84 1.80 1.85 1.79 1.69 1.70 1.69 1.53 1.52 1.47 1.14 0.87 0.66 0.54 0.52 0.44 0.29 0.13 0.07 0.08 0.06 0.05 0.05 0.03 0.02 0.01 0.01 0.02 0.01 0.01 0.01 0.02 0.05 0.08 0.07 0.06 0.06 0.05 0.04 0.06 0.09 0.13
1.88 1.87 1.89 1.97 1.91 1.80 1.72 1.81 1.72 1.69 1.57 1.45 1.25 1.06 0.91 0.74 0.47 0.43 0.38 0.21 0.11 0.07 0.07 0.06 0.06 0.04 0.03 0.02 0.03 0.02 0.01 0.01 0.01 0.03 0.06 0.08 0.08 0.08 0.08 0.08 0.09 0.11 0.13
1.82 1.72 1.65 1.72 1.72 1.69 1.66 1.73 1.77 1.79 1.71 1.69 1.50 1.20 1.07 0.93 0.74 0.67 0.56 0.42 0.27 0.12 0.08 0.06 0.06 0.06 0.04 0.03 0.03 0.04 0.02 0.01 0.01 0.03 0.04 0.06 0.06 0.05 0.08 0.11 0.12 0.13 0.13
1.62 1.63 1.52 1.50 1.46 1.39 1.38 1.44 1.47 1.46 1.52 1.61 1.46 1.23 1.15 0.98 0.87 0.83 0.72 0.58 0.45 0.23 0.12 0.08 0.08 0.07 0.06 0.04 0.05 0.06 0.03 0.02 0.01 0.02 0.02 0.03 0.03 0.02 0.03 0.06 0.12 0.19 0.20
1.29 1.34 1.32 1.24 1.26 1.30 1.31 1.32 1.32 1.27 1.20 1.22 1.24 1.24 1.23 1.07 0.94 0.85 0.82 0.84 0.72 0.55 0.33 0.16 0.13 0.11 0.11 0.09 0.07 0.06 0.03 0.03 0.02 0.01 0.01 0.01 0.01 0.01 0.01 0.02 0.05 0.09 0.11
0.83 0.89 0.99 1.00 1.02 1.10 1.17 1.25 1.28 1.22 1.10 1.06 1.13 1.16 1.09 1.03 0.96 0.85 0.79 0.78 0.79 0.72 0.64 0.46 0.26 0.15 0.15 0.12 0.10 0.06 0.04 0.05 0.04 0.03 0.02 0.01 0.01 0.00 0.01 0.01 0.01 0.01 0.01
0.51 0.56 0.65 0.73 0.78 0.88 0.98 1.06 1.11 1.14 1.12 1.07 1.11 1.16 1.17 1.15 1.13 1.02 0.88 0.82 0.75 0.75 0.69 0.56 0.38 0.22 0.24 0.21 0.17 0.10 0.07 0.07 0.06 0.06 0.03 0.03 0.01 0.00 0.00 0.00 0.00 0.00 0.00
0.41 0.45 0.50 0.57 0.60 0.63 0.75 0.92 1.01 1.00 0.98 0.96 0.94 1.01 1.14 1.19 1.23 1.17 1.09 0.96 0.85 0.83 0.79 0.71 0.51 0.31 0.28 0.29 0.25 0.16 0.10 0.07 0.07 0.06 0.05 0.03 0.02 0.01 0.00 0.00 0.00 0.00 0.00
0.31 0.36 0.42 0.49 0.55 0.56 0.58 0.66 0.74 0.75 0.75 0.77 0.78 0.80 0.90 1.00 1.10 1.17 1.17 1.13 1.09 0.97 0.93 0.90 0.75 0.51 0.36 0.32 0.26 0.22 0.17 0.12 0.09 0.10 0.10 0.08 0.04 0.02 0.01 0.01 0.01 0.01 0.01
0.35 0.36 0.41 0.45 0.49 0.50 0.52 0.52 0.54 0.58 0.60 0.59 0.60 0.62 0.65 0.74 0.87 1.00 1.08 1.11 1.13 1.12 1.08 1.00 0.88 0.73 0.50 0.37 0.31 0.25 0.20 0.18 0.14 0.13 0.14 0.14 0.11 0.08 0.08 0.06 0.04 0.03 0.02
0.41 0.44 0.53 0.54 0.52 0.47 0.49 0.51 0.52 0.50 0.47 0.45 0.45 0.43 0.44 0.49 0.58 0.71 0.86 1.00 1.09 1.14 1.17 1.14 0.97 0.76 0.63 0.53 0.38 0.31 0.30 0.27 0.24 0.22 0.18 0.18 0.19 0.16 0.14 0.11 0.10 0.08 0.07
0.43 0.46 0.51 0.56 0.58 0.55 0.53 0.55 0.52 0.47 0.44 0.43 0.38 0.30 0.28 0.32 0.35 0.41 0.48 0.66 0.86 0.99 1.04 1.07 0.99 0.81 0.66 0.57 0.46 0.40 0.38 0.38 0.33 0.31 0.30 0.26 0.24 0.22 0.21 0.21 0.18 0.15 0.13
0.37 0.39 0.43 0.51 0.58 0.52 0.61 0.56 0.45 0.37 0.38 0.38 0.33 0.28 0.27 0.29 0.27 0.23 0.24 0.33 0.51 0.68 0.82 0.93 0.97 0.86 0.73 0.64 0.58 0.50 0.41 0.35 0.30 0.27 0.27 0.30 0.29 0.28 0.30 0.29 0.30 0.28 0.25
0.35 0.37 0.38 0.44 0.51 0.64 0.55 0.39 0.37 0.33 0.34 0.36 0.37 0.37 0.32 0.29 0.33 0.26 0.22 0.23 0.26 0.30 0.42 0.62 0.78 0.83 0.90 0.77 0.61 0.49 0.41 0.36 0.36 0.36 0.32 0.28 0.28 0.29 0.31 0.32 0.34 0.35 0.35
0.37 0.39 0.40 0.40 0.45 0.54 0.44 0.30 0.31 0.29 0.37 0.42 0.42 0.43 0.45 0.39 0.36 0.36 0.34 0.38 0.36 0.30 0.36 0.29 0.40 0.67 0.74 0.72 0.64 0.56 0.50 0.43 0.37 0.33 0.31 0.32 0.33 0.32 0.29 0.28 0.31 0.30 0.30
0.44 0.44 0.44 0.44 0.46 0.48 0.39 0.29 0.29 0.36 0.48 0.49 0.43 0.47 0.48 0.42 0.46 0.45 0.48 0.58 0.56 0.47 0.57 0.56 0.50 0.51 0.52 0.49 0.49 0.52 0.52 0.46 0.40 0.33 0.26 0.23 0.24 0.27 0.29 0.31 0.29 0.29 0.28
0.41 0.41 0.39 0.36 0.38 0.39 0.42 0.29 0.33 0.45 0.51 0.52 0.50 0.52 0.61 0.54 0.52 0.42 0.39 0.52 0.59 0.52 0.44 0.46 0.42 0.34 0.26 0.27 0.32 0.34 0.47 0.54 0.52 0.42 0.34 0.26 0.25 0.25 0.26 0.25 0.23 0.23 0.22